Weather History for Melfa, VA

Change the Weather History Date:

Wednesday, October 3, 2012

  Actual Average (KWAL) Record (KWAL)
Temperature  
Mean Temperature 82 °F 64 °F  
Max Temperature 89 °F 72 °F 90 °F (2002)
Min Temperature 75 °F 55 °F 36 °F (1974)
Degree Days  
Heating Degree Days 0    
Month to date heating degree days  
Since 1 July heating degree days  
Cooling Degree Days 17    
Month to date cooling degree days  
Year to date cooling degree days  
Growing Degree Days 32 (Base 50)    
Moisture  
Dew Point 74 °F    
Average Humidity 83    
Maximum Humidity 94    
Minimum Humidity 52    
Precipitation  
Precipitation 0.00 in 0.10 in 1.52 in (2010)
Month to date precipitation 0.30  
Year to date precipitation 31.67  
Sea Level Pressure  
Sea Level Pressure 30.06 in    
Wind  
Wind Speed 5 mph (SSW)    
Max Wind Speed 12 mph    
Max Gust Speed 16 mph    
Visibility 9 miles    
Events      
T = Trace of Precipitation, MM = Missing Value Source: NWS Daily Summary

Daily Weather History Graph

Daily Weather History Graph

Search for Another Location

Airport:

Trip Planner

Search our weather history database for the weather conditions in past years. The results will help you decide how hot, cold, wet, or windy it might be!

Date:

Astronomy

Oct. 03, 2012 Rise Set
Actual Time 7:00 AM EDT 6:42 PM EDT
Civil Twilight 6:34 AM EDT 7:08 PM EDT
Nautical Twilight 6:04 AM EDT 7:38 PM EDT
Astronomical Twilight 5:33 AM EDT 8:09 PM EDT
Moon 8:37 PM EDT (10/3) 10:17 AM EDT (10/3)
Length of Visible Light 12h 33m
Length of Day
11h 41m
Waning Gibbous, 89% of the Moon is Illuminated
Oct 3
Waning Gibbous
Oct 8
Last Quarter
Oct 15
New
Oct 21
First Quarter
Oct 29
Full

Hourly Weather History & Observations

Time (EDT) Temp. Heat Index Dew Point Humidity Pressure Visibility Wind Dir Wind Speed Gust Speed Precip Events Conditions
12:15 AM 75.2 °F - 73.4 °F 94% 29.97 in 5.0 mi South 3.5 mph - N/A   Clear
12:18 AM 75.2 °F - 73.4 °F 94% 29.97 in 5.0 mi South 3.5 mph - N/A   Clear
12:35 AM 75.2 °F - 73.4 °F 94% 29.97 in 5.0 mi South 3.5 mph - N/A   Clear
12:36 AM 75.2 °F - 73.4 °F 94% 29.97 in 5.0 mi South 3.5 mph - N/A   Clear
12:55 AM 75.2 °F - 73.4 °F 94% 29.97 in 5.0 mi South 4.6 mph - N/A   Clear
12:56 AM 75.2 °F - 73.4 °F 94% 29.97 in 5.0 mi South 3.5 mph - N/A   Clear
1:15 AM 75.2 °F - 73.4 °F 94% 29.98 in 5.0 mi South 3.5 mph - N/A   Clear
1:16 AM 75.2 °F - 73.4 °F 94% 29.98 in 5.0 mi South 3.5 mph - N/A   Clear
1:35 AM 75.2 °F - 73.4 °F 94% 29.98 in 5.0 mi South 3.5 mph - N/A   Clear
1:36 AM 75.2 °F - 73.4 °F 94% 29.98 in 5.0 mi South 3.5 mph - N/A   Clear
1:55 AM 75.2 °F - 73.4 °F 94% 29.98 in 5.0 mi Calm Calm - N/A   Clear
1:56 AM 75.2 °F - 73.4 °F 94% 29.98 in 5.0 mi South 3.5 mph - N/A   Clear
2:15 AM 75.2 °F - 73.4 °F 94% 29.99 in 5.0 mi South 4.6 mph - N/A   Clear
2:18 AM 75.2 °F - 73.4 °F 94% 29.99 in 5.0 mi South 4.6 mph - N/A   Clear
2:35 AM 75.2 °F - 73.4 °F 94% 29.99 in 5.0 mi South 4.6 mph - N/A   Scattered Clouds
2:36 AM 75.2 °F - 73.4 °F 94% 29.99 in 5.0 mi South 4.6 mph - N/A   Scattered Clouds
2:55 AM 75.2 °F - 73.4 °F 94% 29.99 in 5.0 mi South 4.6 mph - N/A   Overcast
2:56 AM 75.2 °F - 73.4 °F 94% 29.99 in 5.0 mi South 4.6 mph - N/A   Overcast
3:15 AM 77.0 °F - 75.2 °F 94% 30.00 in 7.0 mi SSW 5.8 mph - N/A   Overcast
3:16 AM 77.0 °F - 75.2 °F 94% 30.00 in 7.0 mi SSW 5.8 mph - N/A   Overcast
3:35 AM 77.0 °F - 75.2 °F 94% 30.00 in 7.0 mi SSW 6.9 mph - N/A   Overcast
3:36 AM 77.0 °F - 75.2 °F 94% 30.00 in 7.0 mi SSW 6.9 mph - N/A   Overcast
3:55 AM 78.8 °F - 75.2 °F 89% 30.01 in 7.0 mi SSW 9.2 mph - N/A   Overcast
4:00 AM 78.8 °F - 75.2 °F 89% 30.01 in 10.0 mi SSW 9.2 mph - N/A   Overcast
4:15 AM 78.8 °F - 75.2 °F 89% 30.01 in 10.0 mi SW 10.4 mph - N/A   Overcast
4:20 AM 78.8 °F - 75.2 °F 89% 30.01 in 10.0 mi SSW 11.5 mph 16.1 mph N/A   Overcast
4:35 AM 78.8 °F - 75.2 °F 89% 30.02 in 10.0 mi SW 9.2 mph - N/A   Overcast
4:40 AM 78.8 °F - 75.2 °F 89% 30.02 in 10.0 mi SW 9.2 mph - N/A   Overcast
4:55 AM 78.8 °F - 75.2 °F 89% 30.02 in 10.0 mi SW 8.1 mph - N/A   Overcast
5:03 AM 78.8 °F - 75.2 °F 89% 30.02 in 10.0 mi SW 8.1 mph - N/A   Overcast
5:15 AM 78.8 °F - 75.2 °F 89% 30.02 in 10.0 mi SW 8.1 mph - N/A   Mostly Cloudy
5:16 AM 78.8 °F - 75.2 °F 89% 30.02 in 10.0 mi SW 6.9 mph - N/A   Mostly Cloudy
5:35 AM 78.8 °F - 73.4 °F 83% 30.03 in 10.0 mi SW 8.1 mph - N/A   Clear
5:36 AM 78.8 °F - 73.4 °F 83% 30.03 in 10.0 mi SW 8.1 mph - N/A   Clear
5:55 AM 78.8 °F - 73.4 °F 83% 30.03 in 10.0 mi SW 4.6 mph - N/A   Clear
5:56 AM 78.8 °F - 73.4 °F 83% 30.03 in 10.0 mi SW 5.8 mph - N/A   Clear
6:15 AM 77.0 °F - 73.4 °F 89% 30.04 in 10.0 mi SW 5.8 mph - N/A   Clear
6:16 AM 77.0 °F - 73.4 °F 89% 30.04 in 10.0 mi SW 5.8 mph - N/A   Clear
6:36 AM 77.0 °F - 73.4 °F 89% 30.04 in 7.0 mi SW 5.8 mph - N/A   Clear
6:55 AM 77.0 °F - 73.4 °F 89% 30.05 in 10.0 mi WSW 8.1 mph - N/A   Clear
6:56 AM 77.0 °F - 73.4 °F 89% 30.05 in 10.0 mi WSW 6.9 mph - N/A   Clear
7:15 AM 77.0 °F - 73.4 °F 89% 30.05 in 10.0 mi SW 5.8 mph - N/A   Mostly Cloudy
7:16 AM 77.0 °F - 73.4 °F 89% 30.05 in 10.0 mi SW 5.8 mph - N/A   Mostly Cloudy
7:35 AM 78.8 °F - 73.4 °F 83% 30.06 in 10.0 mi WSW 5.8 mph - N/A   Scattered Clouds
7:36 AM 78.8 °F - 73.4 °F 83% 30.06 in 10.0 mi WSW 6.9 mph - N/A   Scattered Clouds
7:55 AM 78.8 °F - 75.2 °F 89% 30.07 in 10.0 mi WSW 5.8 mph - N/A   Scattered Clouds
7:56 AM 78.8 °F - 75.2 °F 89% 30.07 in 10.0 mi WSW 6.9 mph - N/A   Scattered Clouds
8:15 AM 78.8 °F - 75.2 °F 89% 30.07 in 10.0 mi SW 5.8 mph - N/A   Scattered Clouds
8:16 AM 80.6 °F 86.2 °F 75.2 °F 84% 30.07 in 10.0 mi SW 4.6 mph - N/A   Clear
8:35 AM 80.6 °F 86.2 °F 75.2 °F 84% 30.08 in 10.0 mi SW 4.6 mph - N/A   Clear
8:36 AM 80.6 °F 86.2 °F 75.2 °F 84% 30.07 in 10.0 mi SW 3.5 mph - N/A   Clear
8:55 AM 82.4 °F 89.5 °F 75.2 °F 79% 30.08 in 10.0 mi SW 6.9 mph - N/A   Scattered Clouds
9:15 AM 82.4 °F 89.5 °F 75.2 °F 79% 30.08 in 10.0 mi WSW 6.9 mph - N/A   Scattered Clouds
9:35 AM 82.4 °F 89.5 °F 75.2 °F 79% 30.10 in 10.0 mi WSW 8.1 mph - N/A   Scattered Clouds
9:55 AM 82.4 °F 89.5 °F 75.2 °F 79% 30.10 in 10.0 mi WSW 6.9 mph - N/A   Mostly Cloudy
10:15 AM 82.4 °F 89.5 °F 75.2 °F 79% 30.10 in 10.0 mi WSW 6.9 mph - N/A   Scattered Clouds
10:35 AM 84.2 °F 92.3 °F 75.2 °F 74% 30.10 in 10.0 mi WSW 8.1 mph - N/A   Mostly Cloudy
10:55 AM 84.2 °F 92.3 °F 75.2 °F 74% 30.11 in 10.0 mi SW 10.4 mph - N/A   Scattered Clouds
11:15 AM 84.2 °F 92.3 °F 75.2 °F 74% 30.10 in 10.0 mi SSW 8.1 mph - N/A   Scattered Clouds
11:35 AM 84.2 °F 92.3 °F 75.2 °F 74% 30.11 in 10.0 mi SW 8.1 mph - N/A   Clear
11:55 AM 84.2 °F 92.3 °F 75.2 °F 74% 30.10 in 10.0 mi SW 6.9 mph - N/A   Clear
12:15 PM 84.2 °F 92.3 °F 75.2 °F 74% 30.10 in 10.0 mi WSW 3.5 mph - N/A   Clear
12:35 PM 84.2 °F 90.9 °F 73.4 °F 70% 30.10 in 10.0 mi SW 6.9 mph - N/A   Clear
12:55 PM 86.0 °F 93.4 °F 73.4 °F 66% 30.10 in 10.0 mi SW 6.9 mph - N/A   Clear
1:15 PM 87.8 °F 95.6 °F 73.4 °F 62% 30.09 in 10.0 mi SSW 5.8 mph - N/A   Clear
1:35 PM 87.8 °F 95.6 °F 73.4 °F 62% 30.09 in 10.0 mi South 4.6 mph - N/A   Clear
1:55 PM 89.6 °F 94.7 °F 69.8 °F 52% 30.08 in 10.0 mi SSW 4.6 mph - N/A   Clear
2:15 PM 87.8 °F 92.6 °F 69.8 °F 55% 30.08 in 10.0 mi SW 3.5 mph - N/A   Clear
2:35 PM 87.8 °F 93.8 °F 71.6 °F 58% 30.09 in 10.0 mi SSW 6.9 mph - N/A   Clear
2:55 PM 87.8 °F 93.8 °F 71.6 °F 58% 30.08 in 10.0 mi South 4.6 mph - N/A   Scattered Clouds
3:15 PM 87.8 °F 95.6 °F 73.4 °F 62% 30.09 in 10.0 mi SSW 3.5 mph - N/A   Scattered Clouds
3:35 PM 87.8 °F 95.6 °F 73.4 °F 62% 30.08 in 10.0 mi South 3.5 mph - N/A   Scattered Clouds
3:55 PM 87.8 °F 95.6 °F 73.4 °F 62% 30.08 in 10.0 mi South 6.9 mph - N/A   Scattered Clouds
4:15 PM 87.8 °F 93.8 °F 71.6 °F 58% 30.08 in 10.0 mi South 5.8 mph - N/A   Clear
4:35 PM 87.8 °F 93.8 °F 71.6 °F 58% 30.08 in 10.0 mi SW 5.8 mph - N/A   Clear
4:55 PM 86.0 °F 93.4 °F 73.4 °F 66% 30.08 in 10.0 mi Calm Calm - N/A   Clear
5:15 PM 86.0 °F 95.1 °F 75.2 °F 70% 30.08 in 10.0 mi South 4.6 mph - N/A   Clear
5:35 PM 84.2 °F 92.3 °F 75.2 °F 74% 30.09 in 10.0 mi South 4.6 mph - N/A   Clear
5:55 PM 82.4 °F 89.5 °F 75.2 °F 79% 30.10 in 10.0 mi SSE 3.5 mph - N/A   Clear
6:15 PM 82.4 °F 89.5 °F 75.2 °F 79% 30.09 in 10.0 mi SSE 5.8 mph - N/A   Scattered Clouds
6:55 PM 80.6 °F 86.2 °F 75.2 °F 84% 30.10 in 7.0 mi South 4.6 mph - N/A   Clear
7:15 PM 80.6 °F 86.2 °F 75.2 °F 84% 30.11 in 10.0 mi South 3.5 mph - N/A   Clear
7:35 PM 78.8 °F - 75.2 °F 89% 30.11 in 10.0 mi South 5.8 mph - N/A   Clear
7:55 PM 78.8 °F - 75.2 °F 89% 30.11 in 10.0 mi South 5.8 mph - N/A   Clear
8:15 PM 78.8 °F - 75.2 °F 89% 30.11 in 10.0 mi South 3.5 mph - N/A   Clear
8:35 PM 78.8 °F - 75.2 °F 89% 30.12 in 10.0 mi South 4.6 mph - N/A   Clear
8:55 PM 78.8 °F - 75.2 °F 89% 30.12 in 10.0 mi South 4.6 mph - N/A   Clear
9:15 PM 78.8 °F - 75.2 °F 89% 30.12 in 10.0 mi South 4.6 mph - N/A   Clear
9:35 PM 78.8 °F - 75.2 °F 89% 30.12 in 10.0 mi South 4.6 mph - N/A   Clear
9:55 PM 78.8 °F - 75.2 °F 89% 30.13 in 10.0 mi South 4.6 mph - N/A   Clear
10:15 PM 78.8 °F - 75.2 °F 89% 30.13 in 10.0 mi SSW 3.5 mph - N/A   Clear
10:35 PM 78.8 °F - 75.2 °F 89% 30.13 in 10.0 mi SSW 3.5 mph - N/A   Clear
10:55 PM 78.8 °F - 75.2 °F 89% 30.13 in 10.0 mi SSW 3.5 mph - N/A   Clear
11:15 PM 78.8 °F - 75.2 °F 89% 30.14 in 7.0 mi SSW 3.5 mph - N/A   Clear
11:35 PM 78.8 °F - 75.2 °F 89% 30.13 in 10.0 mi SSW 3.5 mph - N/A   Clear
11:55 PM 77.0 °F - 73.4 °F 89% 30.13 in 10.0 mi SSW 3.5 mph - N/A   Clear